Location: Newark
(43.9494°N, 6.8108°E)
Time: 17:14:02
(UTC+00:00)

Vanguard 2 - Visible Passes

Search period start: 15 October 2019 00:00
Search period end: 25 October 2019 00:00
Orbit: 554 x 2937 km, 32.9° (Epoch: 15 October)

Date Brightness Start Highest point End Pass type
(mag) Time Alt. Az. Time Alt. Az. Time Alt. Az.
15 Oct 11.5 02:03:59 10° S 02:03:59 10° S 02:04:06 10° S visible
15 Oct 10.5 17:20:28 10° S 17:28:11 25° SE 17:38:40 10° E visible
15 Oct 10.1 19:25:58 10° SW 19:37:04 48° SSE 19:40:03 44° SE visible
15 Oct 10.6 21:34:17 10° WSW 21:41:26 37° WSW 21:41:26 37° WSW visible
16 Oct 10.3 17:37:14 10° SSW 17:45:31 31° SE 17:55:17 14° E visible
16 Oct 10.0 19:43:32 10° WSW 19:54:51 52° SSE 19:56:40 50° SSE visible
16 Oct 10.8 21:52:11 10° W 21:58:02 31° WSW 21:58:02 31° WSW visible
17 Oct 10.1 17:54:19 10° SW 18:02:57 37° SSE 18:11:51 19° ESE visible
17 Oct 10.0 20:01:14 10° WSW 20:12:40 53° S 20:13:14 53° SSE visible
17 Oct 11.0 22:10:09 10° W 22:14:37 25° WSW 22:14:37 25° WSW visible
18 Oct 10.0 18:11:38 10° SW 18:20:31 42° SSE 18:28:24 24° ESE visible
18 Oct 10.0 20:18:59 10° WSW 20:29:47 53° S 20:29:47 53° S visible
18 Oct 11.2 22:28:11 10° W 22:31:10 19° WSW 22:31:10 19° WSW visible
19 Oct 9.9 18:29:06 10° SW 18:38:11 46° SSE 18:44:57 29° ESE visible
19 Oct 10.1 20:36:49 10° WSW 20:46:20 49° SSW 20:46:20 49° SSW visible
19 Oct 11.4 22:46:21 10° W 22:47:43 14° W 22:47:43 14° W visible
20 Oct 9.8 18:46:43 10° WSW 18:55:56 49° S 19:01:30 34° ESE visible
20 Oct 10.3 20:54:43 10° W 21:02:53 43° SW 21:02:53 43° SW visible
21 Oct 9.9 16:57:53 10° SW 17:04:45 33° SSE 17:15:13 10° E visible
21 Oct 9.8 19:04:24 10° WSW 19:13:45 50° S 19:18:04 39° SE visible
21 Oct 10.5 21:12:41 10° W 21:19:26 35° SW 21:19:26 35° SW visible
22 Oct 9.8 17:15:14 10° SW 17:22:19 38° SSE 17:33:15 10° E visible
22 Oct 9.9 19:22:10 10° WSW 19:31:36 49° S 19:34:38 43° SSE visible
22 Oct 10.8 21:30:45 10° W 21:36:01 28° WSW 21:36:01 28° WSW visible
23 Oct 9.7 17:32:45 10° SW 17:39:59 42° SSE 17:49:51 14° ESE visible
23 Oct 9.9 19:40:01 10° WSW 19:49:29 47° S 19:51:14 45° SSE visible
23 Oct 11.0 21:48:58 10° W 21:52:37 21° WSW 21:52:37 21° WSW visible
24 Oct 9.7 17:50:22 10° WSW 17:57:44 44° S 18:06:28 18° ESE visible
24 Oct 10.0 19:57:54 10° WSW 20:07:21 43° S 20:07:52 43° S visible
24 Oct 11.3 22:07:25 10° W 22:09:15 15° WSW 22:09:15 15° WSW visible
